Location: Unspecified
(0.0000°N, 0.0000°E)
Time: 23:43:36
(UTC+00:00)

Tiangong 2 - Pass Details

Date: 26 April 2017
Orbit: 389 x 395 km, 42.8° (Epoch: 16 August)

Event Time Altitude Azimuth Distance (km) Brightness Sun altitude
Rises 19:03:25 0° 284° (WNW) 2,272 6.9 -15.9°
Reaches altitude 10° 19:06:20 10° 254° (WSW) 1,417 4.8 -16.6°
Drops below altitude 10° 19:09:30 10° 194° (SSW) 1,417 3.9 -17.4°
Enters shadow 19:10:25 - 182° (S) 1,631 4.1 -17.6°
Exits shadow 19:45:00 -66° 113° (ESE) 12,121 8.6 -26.0°
Maximum altitude 05:03:01 17° 135° (SE) 1,087 3.7 -13.3°
